STARLINK-34178, 64096

Orbit data source: Space-Track

STARLINK-34178, 64096 is a payload satellite owned by SpaceX/Seattle (US) in LEO that was launched on Fri, 23 May 2025 UTC via an FALCON 9 launch vehicle from the Air Force Western Test Range (AFWTR). Payload-class satellites include a variety of spacecraft equipped with specific instruments for various scientific and technological missions. These include communications satellites like Starlink; space stations such as the ISS; scientific satellites like the Hubble; Earth observation satellites from companies like Planet Labs, Umbra, and HawkEye 360; GPS; miniature CubeSats for education and research; and military/defense satellites.

Loading next visibility...
Identifier
64096, 2025-110A
Orbit
LEO
Country
Flag of USUS
Related business
Manufacturer
SpaceX/Seattle
Mission
Operational Commercial Communications
Bus & Motor
STARLINK V2MO, Unknown motor
Mass
575 kg wet, ~530 kg dry
Launch date (UTC)
2025-05-23 (1 year ago)
Launch vehicle
FALCON 9
Launch site
Air Force Western Test Range (AFWTR)
Object type
Payload
Rocket body
Debris
Shape & HBR
Box + 2 Pan, 17.7 m
Radar Cross Section
36.964 m², Large (>1 m²)

Expand to show TLE details & history
Last TLE update: 1 day ago

TLE from 1 day ago
0 STARLINK-34178
1 64096U 25110A   26170.60858322  .00016753  00000-0  57618-3 0  9996
2 64096  53.1592 273.5796 0001070  68.7293 291.3822 15.30216692 61485
Epoch: 2026-06-19T14:36Z
TLE epoch observation values (Epoch: 2026-06-19T14:36:21.590Z)
Latitude
-0°
Longitude
146.65453°
Altitude
475.798 km
Speed
7.629 km/s
True Right ascension
18h 14m 19s
True Declination
0° 00' 00"
Sunlit
Object was in full shadow at epoch
Visualization orbit readout
Latitude
Unknown
Longitude
Unknown
Altitude
Unknown
Speed
Unknown
Apparent Right ascension
Unknown
Apparent Declination
Unknown
Sunlit
N/A
Visualization observer readout
Local Sidereal Time
07:12:11
Azimuth
Unknown
Elevation
Unknown
Doppler factor
Unknown
Orbital elements
Apogee altitude
476.155 km
Perigee altitude
474.688 km
Semi-major axis
6,853.559 km
Eccentricity
0.00011
Inclination
53.1592°
RAAN
273.5796°
Arg. of periapsis
68.7293°
True anomaly
291.37078°
Mean anomaly
291.3822°
Eccentric anomaly
291.37649°
Mean motion
3.82533 °/min
Orbital period
94.11 mins
BSTAR
0.00057618
Loading maneuver chart data...
Computing Atmospheric mass density...
Loading historical data...
Loading historical data...
Loading historical data...
Loading historical data...
Loading historical data...
Loading historical data...
Loading historical data...

Documentation

Showing up to 5 results
|